Time,TemperatureF,DewpointF,PressureIn,WindDirection,WindDirectionDegrees,WindSpeedMPH,WindSpeedGustMPH,Humidity,HourlyPrecipIn,Conditions,Clouds,dailyrainin,SoftwareType,DateUTC
2013-01-21 00:30:00,18.3,12.0,29.69,NW,314,0.0,0.0,76,0.00,,---,0.00,VWS V13.01,2013-01-21 05:30:00,
2013-01-21 01:00:00,18.4,12.4,29.67,NW,314,0.0,0.0,77,0.00,,---,0.00,VWS V13.01,2013-01-21 06:00:00,
2013-01-21 01:30:00,18.0,12.0,29.68,NW,314,0.0,0.0,77,0.00,,---,0.00,VWS V13.01,2013-01-21 06:30:00,
2013-01-21 02:00:00,17.4,11.7,29.68,WNW,287,0.0,0.0,78,0.00,,---,0.00,VWS V13.01,2013-01-21 07:00:00,
2013-01-21 02:30:00,17.5,12.1,29.66,SSE,161,0.0,0.0,79,0.00,,---,0.00,VWS V13.01,2013-01-21 07:30:00,
2013-01-21 03:00:00,17.4,12.0,29.65,NW,319,0.0,0.0,79,0.00,,---,0.00,VWS V13.01,2013-01-21 08:00:00,
2013-01-21 03:30:00,17.5,12.4,29.64,West,281,0.0,0.0,80,0.00,,---,0.00,VWS V13.01,2013-01-21 08:30:00,
2013-01-21 04:00:00,17.0,11.9,29.63,WNW,303,0.0,0.0,80,0.00,,---,0.00,VWS V13.01,2013-01-21 09:00:00,
2013-01-21 04:30:00,16.4,11.3,29.61,NW,323,0.0,0.0,80,0.00,,---,0.00,VWS V13.01,2013-01-21 09:30:00,
2013-01-21 05:00:00,16.1,11.3,29.61,NW,314,0.0,0.0,81,0.00,,---,0.00,VWS V13.01,2013-01-21 10:00:00,
2013-01-21 05:30:00,15.6,10.5,29.61,NW,315,0.0,0.0,80,0.00,,---,0.00,VWS V13.01,2013-01-21 10:30:00,
2013-01-21 06:00:00,15.8,11.0,29.60,West,277,0.0,0.0,81,0.00,,---,0.00,VWS V13.01,2013-01-21 11:00:00,
2013-01-21 06:30:00,16.0,11.2,29.61,West,281,0.0,0.0,81,0.00,,---,0.00,VWS V13.01,2013-01-21 11:30:00,
2013-01-21 07:00:00,15.3,10.5,29.61,NNW,339,0.0,0.0,81,0.00,,---,0.00,VWS V13.01,2013-01-21 12:00:00,
2013-01-21 07:30:00,15.3,10.2,29.62,NNW,344,0.0,0.0,80,0.00,,---,0.00,VWS V13.01,2013-01-21 12:30:00,
2013-01-21 08:00:00,14.9,10.1,29.61,NNW,328,0.0,0.0,81,0.00,,---,0.00,VWS V13.01,2013-01-21 13:00:00,
2013-01-21 08:30:00,13.7,8.4,29.61,NW,304,0.0,0.0,79,0.00,,---,0.00,VWS V13.01,2013-01-21 13:30:00,
2013-01-21 09:00:00,14.6,8.1,29.61,NW,321,0.0,0.0,75,0.00,,---,0.00,VWS V13.01,2013-01-21 14:00:00,
2013-01-21 09:30:00,14.6,7.8,29.62,NNW,336,0.0,1.0,74,0.00,,---,0.00,VWS V13.01,2013-01-21 14:30:00,
2013-01-21 10:00:00,14.6,8.1,29.63,NNW,333,0.0,0.0,75,0.00,,---,0.00,VWS V13.01,2013-01-21 15:00:00,
2013-01-21 10:30:00,15.1,7.1,29.63,WNW,284,0.0,8.0,70,0.00,,---,0.00,VWS V13.01,2013-01-21 15:30:00,
2013-01-21 11:00:00,15.0,6.7,29.63,NNW,327,6.0,8.0,69,0.00,,---,0.00,VWS V13.01,2013-01-21 16:00:00,
2013-01-21 11:30:00,14.9,6.6,29.63,NW,305,4.0,8.0,69,0.01,,---,0.01,VWS V13.01,2013-01-21 16:30:00,
2013-01-21 12:00:00,14.8,5.8,29.62,WNW,283,0.0,9.0,67,0.01,,---,0.01,VWS V13.01,2013-01-21 17:00:00,
2013-01-21 12:30:00,16.4,6.7,29.62,NW,304,3.0,7.0,65,0.01,,---,0.01,VWS V13.01,2013-01-21 17:30:00,
2013-01-21 13:00:00,15.6,7.6,29.62,WNW,284,0.0,13.0,70,0.00,,---,0.01,VWS V13.01,2013-01-21 18:00:00,
2013-01-21 13:30:00,16.6,7.2,29.62,NW,313,4.0,7.0,66,0.00,,---,0.01,VWS V13.01,2013-01-21 18:30:00,
2013-01-21 14:00:00,15.6,7.6,29.61,WNW,291,2.0,8.0,70,0.00,,---,0.01,VWS V13.01,2013-01-21 19:00:00,
2013-01-21 14:30:00,14.1,6.8,29.62,West,270,1.0,11.0,72,0.01,,---,0.02,VWS V13.01,2013-01-21 19:30:00,
2013-01-21 15:00:00,13.4,5.8,29.64,West,274,2.0,10.0,71,0.01,,---,0.02,VWS V13.01,2013-01-21 20:00:00,
2013-01-21 15:30:00,12.3,2.8,29.73,WNW,291,2.0,10.0,65,0.01,,---,0.02,VWS V13.01,2013-01-21 20:30:00,
2013-01-21 16:00:00,11.8,3.9,29.74,WNW,302,2.0,8.0,70,0.00,,---,0.02,VWS V13.01,2013-01-21 21:00:00,
2013-01-21 16:30:00,11.2,3.0,29.93,WNW,297,2.0,6.0,69,0.00,,---,0.02,VWS V13.01,2013-01-21 21:30:00,
2013-01-21 17:00:00,10.1,2.9,29.92,WNW,282,0.0,9.0,72,0.00,,---,0.02,VWS V13.01,2013-01-21 22:00:00,
2013-01-21 17:30:00,10.1,3.8,29.96,NNW,334,8.0,8.0,75,0.00,,---,0.02,VWS V13.01,2013-01-21 22:30:00,
2013-01-21 18:00:00,9.0,2.7,29.93,NNW,339,3.0,8.0,75,0.00,,---,0.02,VWS V13.01,2013-01-21 23:00:00,
2013-01-21 18:30:00,8.8,3.1,29.84,SSW,212,1.0,7.0,77,0.00,,---,0.02,VWS V13.01,2013-01-21 23:30:00,
2013-01-21 19:00:00,8.3,1.7,29.88,NW,318,2.0,4.0,74,0.00,,---,0.02,VWS V13.01,2013-01-22 00:00:00,
2013-01-21 19:30:00,8.6,2.6,29.88,WNW,287,0.0,5.0,76,0.00,,---,0.02,VWS V13.01,2013-01-22 00:30:00,
2013-01-21 20:00:00,8.6,2.9,29.88,NW,318,0.0,3.0,77,0.00,,---,0.02,VWS V13.01,2013-01-22 01:00:00,
2013-01-21 20:30:00,8.8,2.8,29.90,NNW,330,0.0,4.0,76,0.00,,---,0.02,VWS V13.01,2013-01-22 01:30:00,
2013-01-21 21:00:00,8.2,2.5,30.00,NW,313,0.0,4.0,77,0.01,,---,0.03,VWS V13.01,2013-01-22 02:00:00,
2013-01-21 21:30:00,6.6,-0.2,30.05,WNW,298,0.0,6.0,73,0.01,,---,0.03,VWS V13.01,2013-01-22 02:30:00,
2013-01-21 22:00:00,6.1,-1.0,30.05,NW,317,2.0,5.0,72,0.01,,---,0.03,VWS V13.01,2013-01-22 03:00:00,
2013-01-21 22:30:00,5.7,-0.5,30.08,WNW,299,1.0,5.0,75,0.00,,---,0.03,VWS V13.01,2013-01-22 03:30:00,
2013-01-21 23:00:00,4.7,-2.3,30.02,West,259,0.0,6.0,72,0.00,,---,0.03,VWS V13.01,2013-01-22 04:00:00,
2013-01-21 23:30:00,4.6,-2.4,30.04,North,350,1.0,6.0,72,0.00,,---,0.03,VWS V13.01,2013-01-22 04:30:00,